Time,TemperatureF,DewpointF,PressureIn,WindDirection,WindDirectionDegrees,WindSpeedMPH,WindSpeedGustMPH,Humidity,HourlyPrecipIn,Conditions,Clouds,dailyrainin,SoftwareType,DateUTC
2013-02-09 00:01:00,34.0,27.0,29.91,SSE,148,8.0,16.0,76,0.00,,,0.00,,2013-02-09 06:01:00,
2013-02-09 00:11:00,34.0,27.0,29.91,SSE,148,8.0,16.0,76,0.00,,,0.00,,2013-02-09 06:11:00,
2013-02-09 00:21:00,34.0,27.0,29.91,SE,134,7.0,14.0,76,0.00,,,0.00,,2013-02-09 06:21:00,
2013-02-09 00:31:00,34.0,27.0,29.92,SE,127,7.0,14.0,76,0.00,,,0.00,,2013-02-09 06:31:00,
2013-02-09 00:42:00,34.0,27.0,29.92,SE,127,7.0,14.0,76,0.00,,,0.00,,2013-02-09 06:42:00,
2013-02-09 00:52:00,34.0,28.0,29.92,SSE,147,7.0,14.0,77,0.00,,,0.00,,2013-02-09 06:52:00,
2013-02-09 01:01:00,33.0,27.0,29.91,SE,132,7.0,14.0,77,0.00,,,0.00,,2013-02-09 07:01:00,
2013-02-09 01:11:00,33.0,27.0,29.91,SE,132,7.0,14.0,77,0.00,,,0.00,,2013-02-09 07:11:00,
2013-02-09 01:21:00,33.0,27.0,29.91,ESE,121,7.0,15.0,78,0.00,,,0.00,,2013-02-09 07:21:00,
2013-02-09 01:31:00,33.0,27.0,29.90,SSE,154,4.0,11.0,79,0.00,,,0.00,,2013-02-09 07:31:00,
2013-02-09 01:42:00,33.0,27.0,29.90,SSE,154,4.0,11.0,79,0.00,,,0.00,,2013-02-09 07:42:00,
2013-02-09 01:52:00,32.0,27.0,29.89,ESE,111,3.0,9.0,80,0.00,,,0.00,,2013-02-09 07:52:00,
2013-02-09 02:01:00,31.0,26.0,29.89,SE,144,3.0,8.0,82,0.00,,,0.00,,2013-02-09 08:01:00,
2013-02-09 02:11:00,31.0,26.0,29.89,SE,144,3.0,8.0,82,0.00,,,0.00,,2013-02-09 08:11:00,
2013-02-09 02:21:00,31.0,26.0,29.89,SE,136,3.0,7.0,82,0.00,,,0.00,,2013-02-09 08:21:00,
2013-02-09 02:31:00,30.0,25.0,29.88,SE,138,4.0,7.0,83,0.00,,,0.00,,2013-02-09 08:31:00,
2013-02-09 02:42:00,30.0,25.0,29.88,SE,138,4.0,7.0,83,0.00,,,0.00,,2013-02-09 08:42:00,
2013-02-09 02:52:00,30.0,25.0,29.88,SE,140,4.0,10.0,83,0.00,,,0.00,,2013-02-09 08:52:00,
2013-02-09 03:03:00,29.0,25.0,29.87,SE,132,4.0,8.0,85,0.00,,,0.00,,2013-02-09 09:03:00,
2013-02-09 03:11:00,29.0,25.0,29.87,SE,132,4.0,8.0,85,0.00,,,0.00,,2013-02-09 09:11:00,
2013-02-09 03:21:00,29.0,25.0,29.87,SE,136,4.0,10.0,85,0.00,,,0.00,,2013-02-09 09:21:00,
2013-02-09 03:31:00,29.0,25.0,29.86,SE,136,4.0,10.0,85,0.00,,,0.00,,2013-02-09 09:31:00,
2013-02-09 03:42:00,29.0,25.0,29.86,SE,136,4.0,10.0,85,0.00,,,0.00,,2013-02-09 09:42:00,
2013-02-09 03:52:00,30.0,26.0,29.85,SE,137,6.0,11.0,85,0.00,,,0.00,,2013-02-09 09:52:00,
2013-02-09 04:01:00,30.0,26.0,29.85,SE,137,5.0,9.0,85,0.00,,,0.00,,2013-02-09 10:01:00,
2013-02-09 04:11:00,30.0,26.0,29.85,SE,137,5.0,9.0,85,0.00,,,0.00,,2013-02-09 10:11:00,
2013-02-09 04:21:00,29.0,25.0,29.85,SE,125,6.0,10.0,85,0.00,,,0.00,,2013-02-09 10:21:00,
2013-02-09 04:31:00,29.0,25.0,29.84,SE,125,1.0,6.0,83,0.00,,,0.00,,2013-02-09 10:31:00,
2013-02-09 04:42:00,29.0,25.0,29.84,SE,125,1.0,6.0,83,0.00,,,0.00,,2013-02-09 10:42:00,
2013-02-09 04:52:00,28.0,24.0,29.84,SE,136,1.0,4.0,85,0.00,,,0.00,,2013-02-09 10:52:00,
2013-02-09 05:01:00,27.0,23.0,29.84,SE,137,3.0,5.0,86,0.00,,,0.00,,2013-02-09 11:01:00,
2013-02-09 05:11:00,27.0,23.0,29.84,SE,137,3.0,5.0,86,0.00,,,0.00,,2013-02-09 11:11:00,
2013-02-09 05:22:00,27.0,23.0,29.83,SE,138,1.0,6.0,86,0.00,,,0.00,,2013-02-09 11:22:00,
2013-02-09 05:31:00,26.0,23.0,29.83,SE,138,0.0,2.0,87,0.00,,,0.00,,2013-02-09 11:31:00,
2013-02-09 05:41:00,26.0,23.0,29.83,SE,138,0.0,2.0,87,0.00,,,0.00,,2013-02-09 11:41:00,
2013-02-09 05:52:00,25.0,21.0,29.83,SE,138,0.0,2.0,86,0.00,,,0.00,,2013-02-09 11:52:00,
2013-02-09 06:02:00,25.0,22.0,29.83,SE,138,0.0,1.0,88,0.00,,,0.00,,2013-02-09 12:02:00,
2013-02-09 06:11:00,25.0,22.0,29.83,SE,138,0.0,1.0,88,0.00,,,0.00,,2013-02-09 12:11:00,
2013-02-09 06:21:00,25.0,22.0,29.83,SE,138,0.0,2.0,89,0.00,,,0.00,,2013-02-09 12:21:00,
2013-02-09 06:32:00,26.0,23.0,29.83,SE,138,1.0,3.0,89,0.00,,,0.00,,2013-02-09 12:32:00,
2013-02-09 06:42:00,26.0,23.0,29.83,SE,138,1.0,3.0,89,0.00,,,0.00,,2013-02-09 12:42:00,
2013-02-09 06:52:00,27.0,24.0,29.82,SE,140,3.0,6.0,89,0.00,,,0.00,,2013-02-09 12:52:00,
2013-02-09 07:02:00,27.0,24.0,29.82,SE,140,2.0,6.0,88,0.00,,,0.00,,2013-02-09 13:02:00,
2013-02-09 07:11:00,27.0,24.0,29.82,SE,140,2.0,6.0,88,0.00,,,0.00,,2013-02-09 13:11:00,
2013-02-09 07:22:00,28.0,25.0,29.82,SE,131,2.0,5.0,88,0.00,,,0.00,,2013-02-09 13:22:00,
2013-02-09 07:32:00,29.0,25.0,29.82,SE,134,2.0,4.0,85,0.00,,,0.00,,2013-02-09 13:32:00,
2013-02-09 07:42:00,29.0,25.0,29.82,SE,134,2.0,4.0,85,0.00,,,0.00,,2013-02-09 13:42:00,
2013-02-09 07:52:00,29.0,25.0,29.82,SE,129,3.0,8.0,84,0.00,,,0.00,,2013-02-09 13:52:00,
2013-02-09 08:01:00,29.0,25.0,29.82,SE,140,2.0,5.0,85,0.00,,,0.00,,2013-02-09 14:01:00,
2013-02-09 08:11:00,29.0,25.0,29.82,SE,140,2.0,5.0,85,0.00,,,0.00,,2013-02-09 14:11:00,
2013-02-09 08:21:00,29.0,25.0,29.82,SSE,148,3.0,8.0,85,0.00,,,0.00,,2013-02-09 14:21:00,
2013-02-09 08:31:00,30.0,26.0,29.82,SE,136,5.0,8.0,84,0.00,,,0.00,,2013-02-09 14:31:00,
2013-02-09 08:42:00,30.0,26.0,29.82,SE,136,5.0,8.0,84,0.00,,,0.00,,2013-02-09 14:42:00,
2013-02-09 08:52:00,31.0,26.0,29.82,SE,142,1.0,5.0,83,0.00,,,0.00,,2013-02-09 14:52:00,
2013-02-09 09:01:00,32.0,27.0,29.81,SSE,153,3.0,8.0,83,0.00,,,0.00,,2013-02-09 15:01:00,
2013-02-09 09:11:00,32.0,27.0,29.81,SSE,153,3.0,8.0,83,0.00,,,0.00,,2013-02-09 15:11:00,
2013-02-09 09:21:00,33.0,28.0,29.81,SE,142,4.0,7.0,81,0.00,,,0.00,,2013-02-09 15:21:00,
2013-02-09 09:32:00,34.0,28.0,29.80,SE,136,5.0,9.0,78,0.00,,,0.00,,2013-02-09 15:32:00,
2013-02-09 09:42:00,34.0,28.0,29.80,SE,136,5.0,9.0,78,0.00,,,0.00,,2013-02-09 15:42:00,
2013-02-09 09:52:00,35.0,28.0,29.80,SE,132,5.0,11.0,74,0.00,,,0.00,,2013-02-09 15:52:00,
2013-02-09 10:01:00,37.0,28.0,29.80,SE,133,4.0,12.0,70,0.00,,,0.00,,2013-02-09 16:01:00,
2013-02-09 10:11:00,37.0,28.0,29.80,SE,133,4.0,12.0,70,0.00,,,0.00,,2013-02-09 16:11:00,
2013-02-09 10:22:00,38.0,28.0,29.79,SSE,155,5.0,16.0,66,0.00,,,0.00,,2013-02-09 16:22:00,
2013-02-09 10:31:00,38.0,27.0,29.78,WSW,248,3.0,11.0,65,0.00,,,0.00,,2013-02-09 16:31:00,
2013-02-09 10:41:00,38.0,27.0,29.78,WSW,248,3.0,11.0,65,0.00,,,0.00,,2013-02-09 16:41:00,
2013-02-09 10:52:00,39.0,27.0,29.78,ESE,117,4.0,11.0,63,0.00,,,0.00,,2013-02-09 16:52:00,
2013-02-09 11:01:00,40.0,28.0,29.77,SSE,160,3.0,13.0,61,0.00,,,0.00,,2013-02-09 17:01:00,
2013-02-09 11:11:00,40.0,28.0,29.77,SSE,160,3.0,13.0,61,0.00,,,0.00,,2013-02-09 17:11:00,
2013-02-09 11:21:00,41.0,28.0,29.76,East,88,7.0,13.0,59,0.00,,,0.00,,2013-02-09 17:21:00,
2013-02-09 11:32:00,43.0,28.0,29.75,West,279,4.0,13.0,55,0.00,,,0.00,,2013-02-09 17:32:00,
2013-02-09 11:42:00,43.0,28.0,29.75,West,279,4.0,13.0,55,0.00,,,0.00,,2013-02-09 17:42:00,
2013-02-09 11:52:00,44.0,27.0,29.75,WSW,238,5.0,15.0,50,0.00,,,0.00,,2013-02-09 17:52:00,
2013-02-09 12:02:00,45.0,27.0,29.73,SW,224,5.0,19.0,49,0.00,,,0.00,,2013-02-09 18:02:00,
2013-02-09 12:12:00,45.0,27.0,29.73,SW,224,5.0,19.0,49,0.00,,,0.00,,2013-02-09 18:12:00,
2013-02-09 12:23:00,45.0,27.0,29.72,SE,144,3.0,8.0,48,0.00,,,0.00,,2013-02-09 18:23:00,
2013-02-09 12:32:00,46.0,27.0,29.72,ESE,123,7.0,13.0,48,0.00,,,0.00,,2013-02-09 18:32:00,
2013-02-09 12:42:00,46.0,27.0,29.72,ESE,123,7.0,13.0,48,0.00,,,0.00,,2013-02-09 18:42:00,
2013-02-09 12:51:00,46.0,27.0,29.72,SE,146,6.0,18.0,47,0.00,,,0.00,,2013-02-09 18:51:00,
2013-02-09 13:01:00,45.0,27.0,29.70,SE,144,8.0,18.0,49,0.00,,,0.00,,2013-02-09 19:01:00,
2013-02-09 13:11:00,45.0,27.0,29.70,SE,144,8.0,18.0,49,0.00,,,0.00,,2013-02-09 19:11:00,
2013-02-09 13:22:00,45.0,27.0,29.70,SE,144,8.0,18.0,49,0.00,,,0.00,,2013-02-09 19:22:00,
2013-02-09 13:32:00,44.0,28.0,29.69,SSE,150,6.0,18.0,52,0.00,,,0.00,,2013-02-09 19:32:00,
2013-02-09 13:42:00,44.0,28.0,29.69,SSE,150,6.0,18.0,52,0.00,,,0.00,,2013-02-09 19:42:00,
2013-02-09 13:52:00,44.0,28.0,29.67,SE,146,8.0,18.0,53,0.00,,,0.00,,2013-02-09 19:52:00,
2013-02-09 14:01:00,45.0,29.0,29.66,SE,131,7.0,16.0,53,0.00,,,0.00,,2013-02-09 20:01:00,
2013-02-09 14:11:00,45.0,29.0,29.66,SE,131,7.0,16.0,53,0.00,,,0.00,,2013-02-09 20:11:00,
2013-02-09 14:21:00,45.0,29.0,29.65,SE,134,11.0,23.0,53,0.00,,,0.00,,2013-02-09 20:21:00,
2013-02-09 14:32:00,46.0,30.0,29.63,ESE,122,5.0,16.0,53,0.00,,,0.00,,2013-02-09 20:32:00,
2013-02-09 14:42:00,46.0,30.0,29.63,ESE,122,5.0,16.0,53,0.00,,,0.00,,2013-02-09 20:42:00,
2013-02-09 14:52:00,46.0,29.0,29.63,South,174,7.0,22.0,52,0.00,,,0.00,,2013-02-09 20:52:00,
2013-02-09 15:02:00,46.0,32.0,29.62,ESE,117,4.0,13.0,57,0.00,,,0.00,,2013-02-09 21:02:00,
2013-02-09 15:11:00,46.0,32.0,29.62,ESE,117,4.0,13.0,57,0.00,,,0.00,,2013-02-09 21:11:00,
2013-02-09 15:21:00,46.0,32.0,29.60,SSE,148,8.0,14.0,59,0.00,,,0.00,,2013-02-09 21:21:00,
2013-02-09 15:32:00,46.0,32.0,29.60,SE,146,8.0,19.0,59,0.01,,,0.01,,2013-02-09 21:32:00,
2013-02-09 15:42:00,46.0,32.0,29.60,SE,146,8.0,19.0,59,0.01,,,0.01,,2013-02-09 21:42:00,
2013-02-09 15:52:00,46.0,33.0,29.59,SSE,153,7.0,16.0,61,0.01,,,0.01,,2013-02-09 21:52:00,
2013-02-09 16:01:00,46.0,34.0,29.57,SE,145,7.0,13.0,62,0.01,,,0.01,,2013-02-09 22:01:00,
2013-02-09 16:11:00,46.0,34.0,29.57,SE,145,7.0,13.0,62,0.01,,,0.01,,2013-02-09 22:11:00,
2013-02-09 16:21:00,47.0,35.0,29.57,SE,140,8.0,19.0,63,0.01,,,0.01,,2013-02-09 22:21:00,
2013-02-09 16:32:00,48.0,36.0,29.56,SE,144,5.0,12.0,63,0.00,,,0.01,,2013-02-09 22:32:00,
2013-02-09 16:42:00,48.0,36.0,29.56,SE,144,5.0,12.0,63,0.00,,,0.01,,2013-02-09 22:42:00,
2013-02-09 16:52:00,49.0,37.0,29.54,SE,128,6.0,14.0,63,0.00,,,0.01,,2013-02-09 22:52:00,
2013-02-09 17:01:00,49.0,37.0,29.54,SE,135,12.0,21.0,64,0.00,,,0.01,,2013-02-09 23:01:00,
2013-02-09 17:11:00,49.0,37.0,29.54,SE,135,12.0,21.0,64,0.00,,,0.01,,2013-02-09 23:11:00,
2013-02-09 17:21:00,49.0,38.0,29.53,SE,144,7.0,15.0,66,0.00,,,0.01,,2013-02-09 23:21:00,
2013-02-09 17:32:00,49.0,38.0,29.52,South,176,9.0,16.0,66,0.00,,,0.01,,2013-02-09 23:32:00,
2013-02-09 17:42:00,49.0,38.0,29.52,South,176,9.0,16.0,66,0.00,,,0.01,,2013-02-09 23:42:00,
2013-02-09 17:52:00,49.0,39.0,29.52,SE,138,8.0,20.0,67,0.00,,,0.01,,2013-02-09 23:52:00,
2013-02-09 18:02:00,48.0,38.0,29.52,SE,129,9.0,17.0,69,0.00,,,0.01,,2013-02-10 00:02:00,
2013-02-09 18:12:00,48.0,38.0,29.52,SE,129,9.0,17.0,69,0.00,,,0.01,,2013-02-10 00:12:00,
2013-02-09 18:22:00,48.0,39.0,29.52,SE,136,8.0,16.0,70,0.00,,,0.01,,2013-02-10 00:22:00,
2013-02-09 18:32:00,47.0,39.0,29.53,SE,133,7.0,14.0,73,0.00,,,0.01,,2013-02-10 00:32:00,
2013-02-09 18:42:00,47.0,39.0,29.53,SE,133,7.0,14.0,73,0.00,,,0.01,,2013-02-10 00:42:00,
2013-02-09 18:51:00,47.0,39.0,29.53,SE,141,7.0,14.0,74,0.00,,,0.01,,2013-02-10 00:51:00,
2013-02-09 19:01:00,46.0,39.0,29.53,SE,145,5.0,10.0,75,0.00,,,0.01,,2013-02-10 01:01:00,
2013-02-09 19:12:00,46.0,39.0,29.53,SE,145,5.0,10.0,75,0.00,,,0.01,,2013-02-10 01:12:00,
2013-02-09 19:21:00,46.0,39.0,29.52,SSE,155,3.0,10.0,76,0.00,,,0.01,,2013-02-10 01:21:00,
2013-02-09 19:32:00,46.0,39.0,29.52,SSE,149,7.0,14.0,76,0.00,,,0.01,,2013-02-10 01:32:00,
2013-02-09 19:42:00,46.0,39.0,29.52,SSE,149,7.0,14.0,76,0.00,,,0.01,,2013-02-10 01:42:00,
2013-02-09 19:51:00,46.0,40.0,29.52,SE,144,10.0,22.0,78,0.00,,,0.01,,2013-02-10 01:51:00,
2013-02-09 20:01:00,46.0,40.0,29.52,SE,138,9.0,17.0,80,0.00,,,0.01,,2013-02-10 02:01:00,
2013-02-09 20:11:00,46.0,40.0,29.52,SE,138,9.0,17.0,80,0.00,,,0.01,,2013-02-10 02:11:00,
2013-02-09 20:22:00,45.0,40.0,29.52,SE,139,11.0,22.0,82,0.00,,,0.01,,2013-02-10 02:22:00,
2013-02-09 20:32:00,45.0,40.0,29.52,ESE,117,9.0,19.0,84,0.00,,,0.01,,2013-02-10 02:32:00,
2013-02-09 20:42:00,45.0,40.0,29.52,ESE,117,9.0,19.0,84,0.00,,,0.01,,2013-02-10 02:42:00,
2013-02-09 20:52:00,44.0,40.0,29.52,SE,124,10.0,27.0,86,0.00,,,0.01,,2013-02-10 02:52:00,
2013-02-09 21:02:00,43.0,40.0,29.51,SE,141,8.0,20.0,88,0.00,,,0.01,,2013-02-10 03:02:00,
2013-02-09 21:11:00,43.0,40.0,29.51,SE,141,8.0,20.0,88,0.00,,,0.01,,2013-02-10 03:11:00,
2013-02-09 21:21:00,42.0,39.0,29.51,SE,144,9.0,19.0,90,0.01,,,0.02,,2013-02-10 03:21:00,
2013-02-09 21:32:00,42.0,40.0,29.50,SE,126,10.0,18.0,92,0.02,,,0.03,,2013-02-10 03:32:00,
2013-02-09 21:42:00,42.0,40.0,29.50,SE,126,10.0,18.0,92,0.02,,,0.03,,2013-02-10 03:42:00,
2013-02-09 21:51:00,42.0,40.0,29.48,SSE,152,9.0,16.0,92,0.03,,,0.04,,2013-02-10 03:51:00,
2013-02-09 22:01:00,41.0,39.0,29.48,South,173,8.0,13.0,93,0.03,,,0.04,,2013-02-10 04:01:00,
2013-02-09 22:11:00,41.0,39.0,29.48,South,173,8.0,13.0,93,0.03,,,0.04,,2013-02-10 04:11:00,
2013-02-09 22:21:00,41.0,39.0,29.48,SE,145,6.0,19.0,93,0.03,,,0.05,,2013-02-10 04:21:00,
2013-02-09 22:32:00,41.0,39.0,29.47,SE,143,4.0,18.0,93,0.02,,,0.05,,2013-02-10 04:32:00,
2013-02-09 22:42:00,41.0,39.0,29.47,SE,143,4.0,18.0,93,0.02,,,0.05,,2013-02-10 04:42:00,
2013-02-09 22:52:00,41.0,39.0,29.47,South,176,8.0,15.0,93,0.02,,,0.06,,2013-02-10 04:52:00,
2013-02-09 23:01:00,41.0,39.0,29.47,ESE,120,7.0,20.0,92,0.02,,,0.06,,2013-02-10 05:01:00,
2013-02-09 23:11:00,41.0,39.0,29.47,ESE,120,7.0,20.0,92,0.02,,,0.06,,2013-02-10 05:11:00,
2013-02-09 23:22:00,41.0,39.0,29.47,ESE,120,7.0,20.0,92,0.02,,,0.06,,2013-02-10 05:22:00,
2013-02-09 23:31:00,40.0,38.0,29.44,SE,143,6.0,13.0,92,0.02,,,0.07,,2013-02-10 05:31:00,
2013-02-09 23:42:00,40.0,38.0,29.44,SE,143,6.0,13.0,92,0.02,,,0.07,,2013-02-10 05:42:00,
2013-02-09 23:52:00,40.0,38.0,29.42,SE,143,9.0,16.0,92,0.01,,,0.07,,2013-02-10 05:52:00,